Previsão horária em Aberin

Hoje, 19 Janeiro, Terça-feira

Tempo Temperatura Precipitação Vento Pressão Humidade
00:00 +4°C° 0 mm 1 m/s 722 mmHg 84%
01:00 +4°C° 0 mm 1 m/s 722 mmHg 84%
02:00 +4°C° 0 mm 1 m/s 721 mmHg 85%
03:00 +3°C° 0 mm 1 m/s 720 mmHg 85%
04:00 +3°C° 0 mm 1 m/s 720 mmHg 86%
05:00 +2°C° 0 mm 1 m/s 720 mmHg 87%
06:00 +2°C° 0 mm 1 m/s 720 mmHg 88%
07:00 +3°C° 0 mm 1 m/s 719 mmHg 86%
08:00 +3°C° 0 mm 1 m/s 719 mmHg 84%
09:00 +4°C° 0 mm 1 m/s 719 mmHg 83%
10:00 +4°C° 0 mm 2 m/s 719 mmHg 78%
11:00 +5°C° 0 mm 2 m/s 719 mmHg 73%
12:00 +7°C° 0 mm 3 m/s 719 mmHg 68%
13:00 +7°C° 0 mm 3 m/s 718 mmHg 66%
14:00 +8°C° 0 mm 3 m/s 717 mmHg 64%
15:00 +8°C° 0 mm 3 m/s 716 mmHg 62%
16:00 +7°C° 0 mm 3 m/s 716 mmHg 67%
17:00 +4°C° 0 mm 3 m/s 716 mmHg 72%
18:00 +4°C° 0 mm 2 m/s 716 mmHg 77%
19:00 +4°C° 0 mm 2 m/s 715 mmHg 78%
20:00 +2°C° 0 mm 3 m/s 715 mmHg 78%
21:00 +2°C° 0 mm 3 m/s 715 mmHg 79%
22:00 +2°C° 0 mm 3 m/s 714 mmHg 80%
23:00 +2°C° 0 mm 3 m/s 714 mmHg 80%

Amanhã, 20 Janeiro, Quarta-feira

Tempo Temperatura Precipitação Vento Pressão Humidade
00:00 +2°C° 0 mm 3 m/s 714 mmHg 80%
01:00 +1°C° 0 mm 4 m/s 713 mmHg 80%
02:00 +1°C° 0 mm 4 m/s 712 mmHg 80%
03:00 +1°C° 0 mm 4 m/s 711 mmHg 79%
04:00 +1°C° 0 mm 4 m/s 711 mmHg 79%
05:00 +1°C° 0 mm 4 m/s 711 mmHg 78%
06:00 +1°C° 0 mm 4 m/s 711 mmHg 77%
07:00 +2°C° 0 mm 5 m/s 710 mmHg 77%
08:00 +2°C° 0 mm 5 m/s 710 mmHg 76%
09:00 +3°C° 0 mm 6 m/s 710 mmHg 75%
10:00 +4°C° 0 mm 6 m/s 709 mmHg 73%
11:00 +5°C° 0 mm 7 m/s 709 mmHg 72%
12:00 +6°C° 0 mm 8 m/s 708 mmHg 70%
13:00 +6°C° 0 mm 7 m/s 708 mmHg 71%
14:00 +6°C° 0 mm 7 m/s 707 mmHg 71%
15:00 +8°C° 0 mm 6 m/s 706 mmHg 72%
16:00 +7°C° 0 mm 6 m/s 706 mmHg 76%
17:00 +6°C° 0 mm 5 m/s 706 mmHg 79%
18:00 +5°C° 0 mm 4 m/s 706 mmHg 83%
19:00 +5°C° 0 mm 4 m/s 706 mmHg 84%
20:00 +5°C° 0 mm 4 m/s 707 mmHg 85%
21:00 +5°C° 0 mm 3 m/s 707 mmHg 86%
22:00 +5°C° 0 mm 3 m/s 707 mmHg 88%
23:00 +5°C° 0 mm 2 m/s 707 mmHg 89%

Depois de amanhã, 21 Janeiro, Quinta-feira

Tempo Temperatura Precipitação Vento Pressão Humidade
00:00 +5°C° 0 mm 2 m/s 707 mmHg 91%
01:00 +5°C° 0 mm 2 m/s 708 mmHg 91%
02:00 +5°C° 0 mm 2 m/s 708 mmHg 92%
03:00 +5°C° 0 mm 1 m/s 708 mmHg 92%
04:00 +5°C° 0 mm 1 m/s 708 mmHg 92%
05:00 +6°C° 0 mm 1 m/s 708 mmHg 92%
06:00 +6°C° 0 mm 1 m/s 709 mmHg 91%
07:00 +5°C° 0 mm 2 m/s 709 mmHg 90%
08:00 +5°C° 0 mm 2 m/s 709 mmHg 89%
09:00 +6°C° 0 mm 2 m/s 709 mmHg 88%
10:00 +8°C° 0 mm 3 m/s 708 mmHg 80%
11:00 +8°C° 0 mm 4 m/s 708 mmHg 73%
12:00 +11°C° 0 mm 4 m/s 708 mmHg 66%
13:00 +11°C° 0 mm 4 m/s 707 mmHg 67%
14:00 +11°C° 0 mm 4 m/s 707 mmHg 68%
15:00 +11°C° 0 mm 4 m/s 706 mmHg 70%
16:00 +10°C° 0.5 mm 4 m/s 706 mmHg 75%
17:00 +9°C° 0.5 mm 3 m/s 706 mmHg 80%
18:00 +8°C° 0.5 mm 3 m/s 706 mmHg 85%
19:00 +8°C° 0 mm 3 m/s 706 mmHg 81%
20:00 +6°C° 0 mm 4 m/s 706 mmHg 77%
21:00 +6°C° 0 mm 5 m/s 707 mmHg 73%
22:00 +6°C° 0 mm 5 m/s 707 mmHg 73%
23:00 +6°C° 0 mm 5 m/s 708 mmHg 73%

22 Janeiro, Sexta-feira

Tempo Temperatura Precipitação Vento Pressão Humidade
00:00 +6°C° 0 mm 5 m/s 709 mmHg 73%
01:00 +5°C° 0 mm 4 m/s 709 mmHg 75%
02:00 +5°C° 0 mm 3 m/s 709 mmHg 78%
03:00 +5°C° 0 mm 2 m/s 709 mmHg 80%
04:00 +5°C° 0 mm 2 m/s 709 mmHg 81%
05:00 +6°C° 0 mm 1 m/s 708 mmHg 82%
06:00 +6°C° 0 mm 1 m/s 708 mmHg 83%
07:00 +6°C° 0.7 mm 1 m/s 707 mmHg 85%
08:00 +5°C° 0.7 mm 2 m/s 707 mmHg 87%
09:00 +5°C° 0.7 mm 2 m/s 706 mmHg 89%
10:00 +5°C° 0.4 mm 3 m/s 706 mmHg 83%
11:00 +7°C° 0.4 mm 3 m/s 707 mmHg 76%
12:00 +7°C° 0.4 mm 4 m/s 707 mmHg 70%
13:00 +7°C° 0.4 mm 5 m/s 708 mmHg 74%
14:00 +5°C° 0.4 mm 6 m/s 708 mmHg 77%
15:00 +4°C° 0.4 mm 7 m/s 709 mmHg 81%
16:00 +3°C° 0 mm 5 m/s 709 mmHg 82%
17:00 +4°C° 0 mm 3 m/s 710 mmHg 84%
18:00 +5°C° 0 mm 1 m/s 711 mmHg 85%
19:00 +4°C° 0 mm 1 m/s 711 mmHg 86%
20:00 +4°C° 0 mm 1 m/s 711 mmHg 86%
21:00 +4°C° 0 mm 1 m/s 711 mmHg 86%
22:00 +3°C° 0 mm 1 m/s 711 mmHg 86%
23:00 +3°C° 0 mm 1 m/s 711 mmHg 85%

23 Janeiro, Sábado

Tempo Temperatura Precipitação Vento Pressão Humidade
00:00 +2°C° 0 mm 2 m/s 711 mmHg 84%
01:00 +2°C° 0 mm 2 m/s 711 mmHg 85%
02:00 +3°C° 0 mm 2 m/s 710 mmHg 86%
03:00 +3°C° 0 mm 2 m/s 710 mmHg 86%
04:00 +3°C° 0.1 mm 2 m/s 710 mmHg 86%
05:00 +4°C° 0.1 mm 2 m/s 710 mmHg 86%
06:00 +4°C° 0.1 mm 2 m/s 710 mmHg 86%
07:00 +4°C° 0.1 mm 3 m/s 710 mmHg 84%
08:00 +4°C° 0.1 mm 3 m/s 711 mmHg 81%
09:00 +5°C° 0.1 mm 3 m/s 711 mmHg 79%
10:00 +5°C° 0.1 mm 3 m/s 710 mmHg 77%
11:00 +7°C° 0.1 mm 3 m/s 710 mmHg 74%
12:00 +7°C° 0.1 mm 4 m/s 709 mmHg 72%
13:00 +8°C° 0.2 mm 3 m/s 708 mmHg 74%
14:00 +8°C° 0.2 mm 3 m/s 708 mmHg 76%
15:00 +8°C° 0.2 mm 2 m/s 707 mmHg 79%
16:00 +8°C° 0.6 mm 2 m/s 707 mmHg 82%
17:00 +8°C° 0.6 mm 2 m/s 707 mmHg 86%
18:00 +9°C° 0.6 mm 1 m/s 707 mmHg 89%
19:00 +8°C° 0.5 mm 2 m/s 707 mmHg 89%
20:00 +8°C° 0.5 mm 2 m/s 707 mmHg 89%
21:00 +8°C° 0.5 mm 2 m/s 708 mmHg 89%
22:00 +7°C° 0.1 mm 2 m/s 708 mmHg 88%
23:00 +7°C° 0.1 mm 2 m/s 708 mmHg 88%

24 Janeiro, Domingo

Tempo Temperatura Precipitação Vento Pressão Humidade
00:00 +7°C° 0.1 mm 2 m/s 708 mmHg 87%
01:00 +7°C° 0 mm 3 m/s 708 mmHg 84%
02:00 +5°C° 0 mm 3 m/s 709 mmHg 82%
03:00 +5°C° 0 mm 4 m/s 709 mmHg 79%
04:00 +5°C° 0.2 mm 3 m/s 709 mmHg 81%
05:00 +5°C° 0.2 mm 3 m/s 710 mmHg 83%
06:00 +6°C° 0.2 mm 2 m/s 710 mmHg 85%
07:00 +6°C° 0 mm 2 m/s 711 mmHg 84%
08:00 +7°C° 0 mm 1 m/s 711 mmHg 84%
09:00 +8°C° 0 mm 1 m/s 712 mmHg 83%
10:00 +8°C° 0.1 mm 2 m/s 712 mmHg 77%
11:00 +9°C° 0.1 mm 3 m/s 713 mmHg 70%
12:00 +9°C° 0.1 mm 5 m/s 713 mmHg 64%
13:00 +9°C° 0 mm 5 m/s 713 mmHg 63%
14:00 +9°C° 0 mm 5 m/s 713 mmHg 62%
15:00 +10°C° 0 mm 6 m/s 713 mmHg 61%
16:00 +8°C° 0.1 mm 4 m/s 713 mmHg 68%
17:00 +8°C° 0.1 mm 3 m/s 714 mmHg 75%
18:00 +7°C° 0.1 mm 2 m/s 714 mmHg 81%
19:00 +7°C° 0 mm 2 m/s 714 mmHg 83%
20:00 +6°C° 0 mm 2 m/s 715 mmHg 84%
21:00 +7°C° 0 mm 1 m/s 715 mmHg 86%
22:00 +7°C° 0 mm 1 m/s 715 mmHg 87%
23:00 +7°C° 0 mm 1 m/s 716 mmHg 88%
Mostrar mais